MGL298 VHHH-ZMCK

Flight info

Callsign MGL298
Flight time 3h 56m
Altitude 35100
Route BEKOL3B/25L BEKOL A461 YIN/K0869S1070 A461 PAVTU/K0856S1130 A461 OBLIK/K0848S1100 W129 CGO B208 EKETA/K0845S1160 B208 NIXAL DCT SND A575 TOROV TOROV2W
Aircraft B38M/M-SDE1FGHILORVWXY/HB1

Departure

Time 2026-04-22 08:08
Airport Hong Kong International Airport (VHHH)

Arrival

Time 2026-04-22 12:04
Airport Ulaanbaatar Chinggis Khaan International Airport (ZMCK)
Time Latitude Longitude Altitude Speed Heading
2026-04-22 07:43 22.31112 113.92733 34 ft 0 kts 296°
2026-04-22 07:46 22.31056 113.92711 34 ft 0 kts 296°
2026-04-22 07:46 22.31119 113.92743 62 ft 0 kts 296°
2026-04-22 07:47 22.31109 113.92740 34 ft 0 kts 296°
2026-04-22 08:01 22.31103 113.92753 34 ft 4 kts 296°
2026-04-22 08:01 22.31091 113.92780 34 ft 4 kts 293°
2026-04-22 08:01 22.31082 113.92807 34 ft 4 kts 283°
2026-04-22 08:02 22.31080 113.92834 34 ft 4 kts 253°
2026-04-22 08:02 22.31091 113.92850 34 ft 2 kts 206°
2026-04-22 08:02 22.31114 113.92862 34 ft 4 kts 206°
2026-04-22 08:02 22.31138 113.92875 34 ft 3 kts 206°
2026-04-22 08:03 22.31150 113.92880 34 ft 0 kts 200°
2026-04-22 08:05 22.31141 113.92876 34 ft 3 kts 206°
2026-04-22 08:05 22.31101 113.92855 34 ft 10 kts 206°
2026-04-22 08:06 22.31013 113.92809 34 ft 15 kts 206°
2026-04-22 08:06 22.30928 113.92767 34 ft 12 kts 191°
2026-04-22 08:06 22.30880 113.92844 34 ft 20 kts 74°
2026-04-22 08:06 22.30932 113.93006 34 ft 22 kts 71°
2026-04-22 08:07 22.30934 113.93156 34 ft 15 kts 116°
2026-04-22 08:07 22.30889 113.93208 34 ft 15 kts 149°
2026-04-22 08:07 22.30794 113.93247 37 ft 14 kts 161°
2026-04-22 08:07 22.30718 113.93206 35 ft 14 kts 249°
2026-04-22 08:08 22.30674 113.93070 36 ft 41 kts 251°
2026-04-22 08:08 22.30488 113.92502 36 ft 117 kts 251°
2026-04-22 08:08 22.30150 113.91454 125 ft 171 kts 248°
2026-04-22 08:08 22.29733 113.90153 831 ft 186 kts 249°
2026-04-22 08:09 22.29341 113.88913 2133 ft 169 kts 248°
2026-04-22 08:09 22.28949 113.87699 2958 ft 177 kts 247°
2026-04-22 08:09 22.28455 113.86409 3427 ft 198 kts 238°
2026-04-22 08:09 22.27664 113.85111 3555 ft 215 kts 235°
2026-04-22 08:10 22.26810 113.83753 3636 ft 222 kts 235°
2026-04-22 08:10 22.25883 113.82401 3707 ft 226 kts 223°
2026-04-22 08:10 22.24521 113.81574 3746 ft 229 kts 197°
2026-04-22 08:10 22.22935 113.81379 3782 ft 229 kts 187°
2026-04-22 08:11 22.21326 113.81281 4005 ft 234 kts 184°
2026-04-22 08:11 22.19724 113.81641 4048 ft 241 kts 156°
2026-04-22 08:11 22.18405 113.82788 4175 ft 249 kts 137°
2026-04-22 08:11 22.17219 113.84163 4340 ft 251 kts 137°
2026-04-22 08:12 22.16147 113.85667 4442 ft 257 kts 120°
2026-04-22 08:12 22.15434 113.87472 4607 ft 270 kts 117°
2026-04-22 08:12 22.14694 113.89377 4682 ft 278 kts 117°
2026-04-22 08:12 22.14211 113.91422 4746 ft 288 kts 94°
2026-04-22 08:13 22.14587 113.93552 4880 ft 293 kts 66°
2026-04-22 08:13 22.15539 113.95508 5360 ft 298 kts 62°
2026-04-22 08:13 22.16511 113.97494 6254 ft 301 kts 62°
2026-04-22 08:13 22.17504 113.99508 7107 ft 307 kts 62°
2026-04-22 08:14 22.18517 114.01552 8025 ft 310 kts 59°
2026-04-22 08:14 22.19859 114.03362 8922 ft 310 kts 39°
2026-04-22 08:14 22.21464 114.04957 9729 ft 318 kts 40°
2026-04-22 08:14 22.23101 114.06611 10384 ft 330 kts 40°
2026-04-22 08:15 22.24827 114.08348 10781 ft 349 kts 40°
2026-04-22 08:15 22.26646 114.10174 11260 ft 364 kts 40°
2026-04-22 08:15 22.28559 114.12006 11916 ft 367 kts 32°
2026-04-22 08:15 22.30774 114.13338 12730 ft 366 kts 23°
2026-04-22 08:16 22.33062 114.14599 13432 ft 371 kts 23°
2026-04-22 08:16 22.35374 114.15860 14117 ft 374 kts 23°
2026-04-22 08:16 22.37708 114.17127 14749 ft 377 kts 23°
2026-04-22 08:16 22.40063 114.18398 15354 ft 380 kts 21°
2026-04-22 08:17 22.42537 114.19231 15943 ft 377 kts
2026-04-22 08:17 22.45166 114.19200 16529 ft 372 kts 346°
2026-04-22 08:17 22.47607 114.18340 17081 ft 369 kts 329°
2026-04-22 08:17 22.49781 114.16866 17596 ft 370 kts 322°
2026-04-22 08:18 22.51885 114.15240 18124 ft 373 kts 320°
2026-04-22 08:18 22.53948 114.13588 18587 ft 376 kts 323°
2026-04-22 08:18 22.56292 114.12287 19059 ft 381 kts 332°
2026-04-22 08:18 22.58705 114.11076 19490 ft 384 kts 332°
2026-04-22 08:19 22.61127 114.09841 19941 ft 386 kts 332°
2026-04-22 08:19 22.63564 114.08592 20390 ft 388 kts 332°
2026-04-22 08:19 22.66012 114.07335 20826 ft 391 kts 331°
2026-04-22 08:19 22.68479 114.06067 21274 ft 393 kts 331°
2026-04-22 08:20 22.70956 114.04793 21714 ft 396 kts 332°
2026-04-22 08:20 22.73452 114.03509 22134 ft 398 kts 332°
2026-04-22 08:20 22.75960 114.02218 22551 ft 401 kts 332°
2026-04-22 08:20 22.78485 114.00917 22959 ft 403 kts 332°
2026-04-22 08:21 22.81026 113.99608 23370 ft 405 kts 331°
2026-04-22 08:21 22.83580 113.98291 23720 ft 407 kts 331°
2026-04-22 08:21 22.86145 113.96969 24055 ft 409 kts 331°
2026-04-22 08:21 22.88723 113.95639 24396 ft 411 kts 331°
2026-04-22 08:22 22.91306 113.94296 24740 ft 413 kts 331°
2026-04-22 08:22 22.93899 113.92948 25079 ft 414 kts 331°
2026-04-22 08:22 22.96505 113.91593 25408 ft 416 kts 331°
2026-04-22 08:22 22.99118 113.90233 25735 ft 418 kts 331°
2026-04-22 08:23 23.01745 113.88866 26076 ft 420 kts 330°
2026-04-22 08:23 23.04385 113.87491 26432 ft 422 kts 330°
2026-04-22 08:23 23.07000 113.86129 26750 ft 424 kts 330°
2026-04-22 08:23 23.09704 113.84827 27062 ft 429 kts 337°
2026-04-22 08:24 23.12533 113.83784 27412 ft 430 kts 336°
2026-04-22 08:24 23.15360 113.82701 27707 ft 432 kts 336°
2026-04-22 08:24 23.18195 113.81595 28028 ft 433 kts 336°
2026-04-22 08:24 23.21036 113.80478 28327 ft 435 kts 335°
2026-04-22 08:25 23.23890 113.79352 28626 ft 437 kts 335°
2026-04-22 08:25 23.26754 113.78221 28928 ft 439 kts 335°
2026-04-22 08:25 23.29631 113.77084 29220 ft 441 kts 335°
2026-04-22 08:25 23.32518 113.75942 29506 ft 443 kts 335°
2026-04-22 08:26 23.35417 113.74796 29790 ft 444 kts 335°
2026-04-22 08:26 23.38327 113.73644 30038 ft 446 kts 335°
2026-04-22 08:26 23.41244 113.72489 30341 ft 446 kts 335°
2026-04-22 08:26 23.44165 113.71332 30571 ft 448 kts 335°
2026-04-22 08:27 23.47099 113.70169 30808 ft 449 kts 335°
2026-04-22 08:27 23.50039 113.69003 31054 ft 450 kts 335°
2026-04-22 08:27 23.52987 113.67833 31291 ft 452 kts 335°
2026-04-22 08:27 23.55941 113.66661 31566 ft 452 kts 335°
2026-04-22 08:28 23.58893 113.65489 31905 ft 451 kts 335°
2026-04-22 08:28 23.61837 113.64320 32258 ft 450 kts 335°
2026-04-22 08:28 23.64773 113.63152 32624 ft 448 kts 335°
2026-04-22 08:28 23.67697 113.61990 32991 ft 447 kts 335°
2026-04-22 08:29 23.70610 113.60830 33368 ft 445 kts 335°
2026-04-22 08:29 23.73511 113.59675 33755 ft 443 kts 335°
2026-04-22 08:29 23.76406 113.58522 34079 ft 442 kts 335°
2026-04-22 08:29 23.79301 113.57369 34293 ft 443 kts 335°
2026-04-22 08:30 23.82192 113.56217 34527 ft 443 kts 335°
2026-04-22 08:30 23.85083 113.55063 34836 ft 442 kts 335°
2026-04-22 08:30 23.90806 113.52780 34831 ft 439 kts 335°
2026-04-22 08:31 23.96539 113.50489 34914 ft 440 kts 335°
2026-04-22 08:32 24.05208 113.47022 34896 ft 440 kts 335°
2026-04-22 08:32 24.10928 113.44732 34902 ft 442 kts 335°
2026-04-22 08:33 24.16700 113.42423 34902 ft 442 kts 336°
2026-04-22 08:33 24.19772 113.41707 34866 ft 452 kts 352°
2026-04-22 08:33 24.22891 113.41723 34912 ft 456 kts 355°
2026-04-22 08:34 24.29256 113.41855 34912 ft 458 kts 355°
2026-04-22 08:34 24.35612 113.42043 34906 ft 456 kts 355°
2026-04-22 08:35 24.41962 113.42220 34931 ft 458 kts 355°
2026-04-22 08:35 24.48329 113.42400 34922 ft 457 kts 355°
2026-04-22 08:36 24.54706 113.42580 34922 ft 459 kts 355°
2026-04-22 08:36 24.61075 113.42761 34929 ft 458 kts 355°
2026-04-22 08:37 24.67430 113.42937 34944 ft 457 kts 355°
2026-04-22 08:37 24.73817 113.43122 34922 ft 459 kts 355°
2026-04-22 08:38 24.80194 113.43303 34952 ft 458 kts 355°
2026-04-22 08:38 24.86577 113.43485 34946 ft 459 kts 355°
2026-04-22 08:39 24.92958 113.43666 34956 ft 459 kts 355°
2026-04-22 08:39 24.99336 113.43848 34962 ft 458 kts 355°
2026-04-22 08:40 25.05703 113.44030 34981 ft 458 kts 355°
2026-04-22 08:40 25.12072 113.44212 34985 ft 458 kts 355°
2026-04-22 08:41 25.18441 113.44394 34991 ft 458 kts 355°
2026-04-22 08:41 25.24803 113.44576 35019 ft 456 kts 355°
2026-04-22 08:42 25.31079 113.44757 35021 ft 449 kts 354°
2026-04-22 08:42 25.37377 113.44936 34997 ft 453 kts 354°
2026-04-22 08:43 25.43690 113.45119 35016 ft 454 kts 354°
2026-04-22 08:43 25.49982 113.45297 35039 ft 452 kts 354°
2026-04-22 08:44 25.56236 113.45479 35066 ft 453 kts 354°
2026-04-22 08:44 25.62535 113.45659 35062 ft 453 kts 354°
2026-04-22 08:45 25.68853 113.45841 35049 ft 454 kts 354°
2026-04-22 08:45 25.75160 113.46024 35053 ft 453 kts 354°
2026-04-22 08:46 25.81464 113.46206 35072 ft 453 kts 353°
2026-04-22 08:46 25.87759 113.46390 35094 ft 453 kts 354°
2026-04-22 08:47 25.94067 113.46590 35001 ft 451 kts 354°
2026-04-22 08:47 26.00362 113.46784 35093 ft 454 kts 354°
2026-04-22 08:48 26.06666 113.46980 35069 ft 451 kts 354°
2026-04-22 08:48 26.12938 113.47175 35082 ft 453 kts 353°
2026-04-22 08:49 26.19256 113.47371 35086 ft 454 kts 353°
2026-04-22 08:49 26.25566 113.47568 35079 ft 453 kts 353°
2026-04-22 08:50 26.31872 113.47765 35083 ft 454 kts 353°
2026-04-22 08:50 26.38188 113.47962 35060 ft 453 kts 353°
2026-04-22 08:51 26.44495 113.48159 35082 ft 454 kts 353°
2026-04-22 08:51 26.50803 113.48356 35079 ft 453 kts 353°
2026-04-22 08:52 26.57110 113.48554 35076 ft 453 kts 353°
2026-04-22 08:52 26.63417 113.48752 35105 ft 453 kts 353°
2026-04-22 08:53 26.69721 113.48949 35075 ft 453 kts 352°
2026-04-22 08:53 26.76021 113.49147 35078 ft 453 kts 352°
2026-04-22 08:54 26.82314 113.49346 35092 ft 452 kts 352°
2026-04-22 08:54 26.87553 113.49511 35064 ft 453 kts 352°
2026-04-22 08:55 26.93852 113.49709 35091 ft 453 kts 352°
2026-04-22 08:55 27.00150 113.49908 35089 ft 453 kts 352°
2026-04-22 08:56 27.06453 113.50107 35077 ft 453 kts 352°
2026-04-22 08:56 27.12750 113.50306 35075 ft 453 kts 352°
2026-04-22 08:57 27.19048 113.50506 35095 ft 453 kts 351°
2026-04-22 08:57 27.25366 113.50696 35076 ft 454 kts 351°
2026-04-22 08:58 27.31692 113.50848 35076 ft 455 kts 351°
2026-04-22 08:58 27.38018 113.51004 35078 ft 455 kts 351°
2026-04-22 08:59 27.44345 113.51160 35068 ft 454 kts 351°
2026-04-22 08:59 27.50690 113.51317 35071 ft 458 kts 351°
2026-04-22 09:00 27.57074 113.51475 35070 ft 459 kts 351°
2026-04-22 09:00 27.63415 113.51632 35071 ft 459 kts 352°
2026-04-22 09:01 27.69834 113.52171 35076 ft 463 kts 354°
2026-04-22 09:01 27.76260 113.52715 35073 ft 464 kts 354°
2026-04-22 09:02 27.82700 113.53252 35068 ft 464 kts 354°
2026-04-22 09:02 27.89144 113.53789 35079 ft 465 kts 354°
2026-04-22 09:03 27.95590 113.54328 35054 ft 464 kts 354°
2026-04-22 09:03 28.02034 113.54867 35086 ft 465 kts 354°
2026-04-22 09:04 28.08487 113.55406 35059 ft 465 kts 354°
2026-04-22 09:04 28.14939 113.55865 35058 ft 464 kts 354°
2026-04-22 09:05 28.21387 113.56316 35069 ft 464 kts 354°
2026-04-22 09:05 28.27841 113.56770 35084 ft 464 kts 354°
2026-04-22 09:06 28.34289 113.57224 35070 ft 464 kts 354°
2026-04-22 09:06 28.40735 113.57676 35057 ft 464 kts 354°
2026-04-22 09:07 28.47184 113.58129 35056 ft 464 kts 354°
2026-04-22 09:07 28.53635 113.58560 35098 ft 464 kts 354°
2026-04-22 09:08 28.60091 113.58993 35066 ft 465 kts 354°
2026-04-22 09:08 28.66552 113.59427 35058 ft 465 kts 354°
2026-04-22 09:09 28.73011 113.59861 35065 ft 465 kts 354°
2026-04-22 09:09 28.79474 113.60347 35065 ft 466 kts 354°
2026-04-22 09:10 28.85946 113.60845 35060 ft 466 kts 354°
2026-04-22 09:10 28.92417 113.61343 35064 ft 466 kts 354°
2026-04-22 09:11 28.98893 113.61841 35062 ft 466 kts 354°
2026-04-22 09:11 29.05363 113.62340 35064 ft 465 kts 354°
2026-04-22 09:12 29.11835 113.62839 35065 ft 466 kts 354°
2026-04-22 09:12 29.18266 113.63335 35065 ft 467 kts 354°
2026-04-22 09:13 29.24737 113.63836 35076 ft 466 kts 354°
2026-04-22 09:13 29.31209 113.64358 35064 ft 466 kts 354°
2026-04-22 09:14 29.37675 113.64879 35083 ft 466 kts 354°
2026-04-22 09:14 29.44142 113.65399 35066 ft 466 kts 354°
2026-04-22 09:15 29.50612 113.65922 35075 ft 466 kts 354°
2026-04-22 09:15 29.57078 113.66442 35056 ft 465 kts 354°
2026-04-22 09:16 29.63530 113.66964 35080 ft 465 kts 354°
2026-04-22 09:16 29.69963 113.67485 35066 ft 464 kts 354°
2026-04-22 09:17 29.76405 113.68008 35071 ft 464 kts 354°
2026-04-22 09:17 29.82841 113.68530 35069 ft 464 kts 354°
2026-04-22 09:18 29.89288 113.69114 35068 ft 470 kts
2026-04-22 09:18 29.92477 113.70201 35051 ft 487 kts 15°
2026-04-22 09:18 29.95594 113.71758 35069 ft 490 kts 14°
2026-04-22 09:19 30.01861 113.74891 35072 ft 491 kts 15°
2026-04-22 09:19 30.08072 113.78063 35063 ft 491 kts 15°
2026-04-22 09:20 30.14331 113.81270 35069 ft 493 kts 15°
2026-04-22 09:20 30.20597 113.84485 35065 ft 493 kts 15°
2026-04-22 09:21 30.26867 113.87707 35065 ft 493 kts 15°
2026-04-22 09:21 30.33136 113.90933 35102 ft 493 kts 15°
2026-04-22 09:22 30.39403 113.94163 35055 ft 493 kts 15°
2026-04-22 09:22 30.45666 113.97395 35059 ft 493 kts 15°
2026-04-22 09:23 30.51934 114.00633 35058 ft 493 kts 15°
2026-04-22 09:23 30.58195 114.03889 35084 ft 493 kts 15°
2026-04-22 09:24 30.64457 114.07160 35052 ft 493 kts 15°
2026-04-22 09:24 30.70720 114.10435 35067 ft 494 kts 15°
2026-04-22 09:25 30.76980 114.13714 35066 ft 494 kts 15°
2026-04-22 09:25 30.83243 114.16999 35078 ft 494 kts 15°
2026-04-22 09:26 30.89504 114.20288 35067 ft 494 kts 15°
2026-04-22 09:26 30.95766 114.23581 35061 ft 494 kts 15°
2026-04-22 09:27 31.02024 114.26878 35059 ft 494 kts 15°
2026-04-22 09:27 31.08281 114.30179 35057 ft 493 kts 14°
2026-04-22 09:28 31.14531 114.33480 35061 ft 493 kts 14°
2026-04-22 09:28 31.20779 114.36786 35056 ft 493 kts 14°
2026-04-22 09:29 31.27031 114.40098 35087 ft 493 kts 14°
2026-04-22 09:29 31.33334 114.42868 35032 ft 465 kts 356°
2026-04-22 09:30 31.39720 114.43623 35022 ft 462 kts 354°
2026-04-22 09:30 31.46114 114.44277 35065 ft 461 kts 354°
2026-04-22 09:31 31.52505 114.44886 35051 ft 461 kts 353°
2026-04-22 09:31 31.58892 114.45491 35075 ft 461 kts 353°
2026-04-22 09:32 31.65283 114.46097 35062 ft 461 kts 353°
2026-04-22 09:32 31.71633 114.46698 35070 ft 461 kts 353°
2026-04-22 09:33 31.78021 114.47299 35092 ft 461 kts 354°
2026-04-22 09:33 31.84423 114.47901 35076 ft 461 kts 354°
2026-04-22 09:34 31.90827 114.48504 35079 ft 461 kts 354°
2026-04-22 09:34 31.97228 114.49109 35079 ft 461 kts 354°
2026-04-22 09:35 32.06841 114.50017 35087 ft 463 kts 356°
2026-04-22 09:35 32.13266 114.50626 35082 ft 463 kts 356°
2026-04-22 09:36 32.19691 114.51235 35082 ft 463 kts 356°
2026-04-22 09:36 32.26114 114.51844 35113 ft 464 kts 358°
2026-04-22 09:37 32.32545 114.52288 35070 ft 455 kts 347°
2026-04-22 09:37 32.35592 114.51578 35108 ft 444 kts 339°
2026-04-22 09:37 32.38613 114.50709 35060 ft 447 kts 339°
2026-04-22 09:38 32.44642 114.48917 35099 ft 447 kts 339°
2026-04-22 09:38 32.50658 114.47075 35116 ft 446 kts 339°
2026-04-22 09:39 32.56678 114.45221 35096 ft 447 kts 339°
2026-04-22 09:39 32.61685 114.43677 35078 ft 447 kts 339°
2026-04-22 09:40 32.67707 114.41817 35091 ft 448 kts 339°
2026-04-22 09:40 32.73736 114.39953 35092 ft 447 kts 339°
2026-04-22 09:41 32.79761 114.38086 35119 ft 448 kts 338°
2026-04-22 09:41 32.86782 114.35910 35096 ft 449 kts 338°
2026-04-22 09:42 32.92824 114.34033 35095 ft 449 kts 338°
2026-04-22 09:42 32.97884 114.32459 35093 ft 449 kts 338°
2026-04-22 09:43 33.03923 114.30578 35112 ft 449 kts 338°
2026-04-22 09:43 33.09988 114.28687 35099 ft 451 kts 338°
2026-04-22 09:44 33.16058 114.26792 35090 ft 451 kts 338°
2026-04-22 09:44 33.22123 114.24895 35097 ft 451 kts 338°
2026-04-22 09:45 33.28192 114.22994 35097 ft 451 kts 338°
2026-04-22 09:45 33.34239 114.21098 35096 ft 453 kts 338°
2026-04-22 09:46 33.40348 114.19209 35098 ft 454 kts 338°
2026-04-22 09:46 33.46465 114.17320 35097 ft 454 kts 338°
2026-04-22 09:47 33.52580 114.15428 35093 ft 454 kts 338°
2026-04-22 09:47 33.58707 114.13530 35097 ft 456 kts 338°
2026-04-22 09:48 33.64857 114.11623 35093 ft 457 kts 338°
2026-04-22 09:48 33.71011 114.09710 35093 ft 457 kts 338°
2026-04-22 09:49 33.77160 114.07797 35093 ft 457 kts 338°
2026-04-22 09:49 33.83310 114.05879 35103 ft 457 kts 338°
2026-04-22 09:50 33.89498 114.03949 35100 ft 461 kts 338°
2026-04-22 09:50 33.95700 114.02011 35094 ft 460 kts 338°
2026-04-22 09:51 34.01901 114.00070 35093 ft 460 kts 338°
2026-04-22 09:51 34.08099 113.98127 35095 ft 460 kts 338°
2026-04-22 09:52 34.14296 113.96182 35093 ft 460 kts 338°
2026-04-22 09:52 34.20492 113.94234 35098 ft 460 kts 338°
2026-04-22 09:53 34.26690 113.92281 35091 ft 460 kts 338°
2026-04-22 09:53 34.32887 113.90327 35121 ft 460 kts 337°
2026-04-22 09:54 34.39079 113.88371 35099 ft 459 kts 337°
2026-04-22 09:54 34.45268 113.86414 35097 ft 460 kts 337°
2026-04-22 09:55 34.51456 113.84447 35093 ft 459 kts 337°
2026-04-22 09:55 34.57576 113.82426 35112 ft 459 kts 336°
2026-04-22 09:56 34.63744 113.80394 35092 ft 459 kts 336°
2026-04-22 09:56 34.69904 113.78362 35095 ft 459 kts 336°
2026-04-22 09:57 34.76072 113.76324 35096 ft 459 kts 336°
2026-04-22 09:57 34.82233 113.74284 35113 ft 459 kts 336°
2026-04-22 09:58 34.88280 113.71972 35108 ft 451 kts 330°
2026-04-22 09:58 34.94194 113.69324 35093 ft 453 kts 331°
2026-04-22 09:59 35.00131 113.66719 35098 ft 453 kts 331°
2026-04-22 09:59 35.06069 113.64117 35097 ft 453 kts 331°
2026-04-22 10:00 35.12003 113.61513 35107 ft 453 kts 330°
2026-04-22 10:00 35.17934 113.58906 35103 ft 453 kts 330°
2026-04-22 10:01 35.23863 113.56297 35099 ft 453 kts 330°
2026-04-22 10:01 35.29791 113.53683 35099 ft 453 kts 330°
2026-04-22 10:02 35.35718 113.51066 35131 ft 452 kts 330°
2026-04-22 10:02 35.41565 113.48480 35104 ft 449 kts 329°
2026-04-22 10:03 35.47448 113.45876 35119 ft 450 kts 329°
2026-04-22 10:03 35.53329 113.43270 35095 ft 449 kts 330°
2026-04-22 10:04 35.59202 113.40662 35125 ft 446 kts 328°
2026-04-22 10:04 35.65024 113.38071 35119 ft 445 kts 328°
2026-04-22 10:05 35.70841 113.35477 35119 ft 444 kts 328°
2026-04-22 10:05 35.76647 113.32884 35112 ft 444 kts 328°
2026-04-22 10:06 35.82455 113.30286 35110 ft 444 kts 328°
2026-04-22 10:06 35.88273 113.27690 35120 ft 446 kts 329°
2026-04-22 10:07 35.94119 113.25079 35104 ft 447 kts 329°
2026-04-22 10:07 35.99966 113.22463 35103 ft 447 kts 329°
2026-04-22 10:08 36.05810 113.19845 35108 ft 447 kts 329°
2026-04-22 10:08 36.11657 113.17220 35127 ft 447 kts 329°
2026-04-22 10:09 36.17518 113.14585 35105 ft 448 kts 329°
2026-04-22 10:09 36.23390 113.11956 35103 ft 451 kts 332°
2026-04-22 10:10 36.29506 113.10037 35126 ft 457 kts 336°
2026-04-22 10:10 36.35644 113.08058 35124 ft 455 kts 336°
2026-04-22 10:11 36.41755 113.06059 35099 ft 454 kts 336°
2026-04-22 10:11 36.47864 113.04056 35103 ft 454 kts 336°
2026-04-22 10:12 36.53972 113.02050 35101 ft 454 kts 336°
2026-04-22 10:12 36.60081 113.00041 35104 ft 454 kts 336°
2026-04-22 10:13 36.66189 112.98028 35102 ft 454 kts 336°
2026-04-22 10:13 36.72296 112.96013 35094 ft 454 kts 336°
2026-04-22 10:14 36.78400 112.93995 35085 ft 454 kts 336°
2026-04-22 10:14 36.84507 112.91973 35128 ft 454 kts 336°
2026-04-22 10:15 36.90587 112.89956 35086 ft 451 kts 336°
2026-04-22 10:15 36.96661 112.87938 35085 ft 452 kts 336°
2026-04-22 10:16 37.02737 112.85917 35083 ft 452 kts 335°
2026-04-22 10:16 37.08813 112.83909 35106 ft 451 kts 336°
2026-04-22 10:17 37.14864 112.81910 35065 ft 449 kts 336°
2026-04-22 10:17 37.20906 112.79913 35037 ft 449 kts 336°
2026-04-22 10:18 37.26944 112.77909 35090 ft 450 kts 336°
2026-04-22 10:18 37.32975 112.75906 35078 ft 447 kts 336°
2026-04-22 10:19 37.39006 112.73900 35054 ft 448 kts 336°
2026-04-22 10:19 37.45044 112.71889 35051 ft 449 kts 336°
2026-04-22 10:20 37.51083 112.69874 35045 ft 449 kts 336°
2026-04-22 10:20 37.57124 112.67855 35050 ft 450 kts 336°
2026-04-22 10:21 37.63217 112.65818 35045 ft 454 kts 336°
2026-04-22 10:21 37.69326 112.63778 35042 ft 454 kts 336°
2026-04-22 10:22 37.75419 112.61831 35037 ft 459 kts 341°
2026-04-22 10:22 37.81698 112.60332 35053 ft 461 kts 340°
2026-04-22 10:23 37.88014 112.58786 35041 ft 464 kts 341°
2026-04-22 10:23 37.94358 112.57317 35043 ft 463 kts 341°
2026-04-22 10:24 38.00701 112.55834 35047 ft 463 kts 341°
2026-04-22 10:24 38.07040 112.54348 35045 ft 463 kts 341°
2026-04-22 10:25 38.13385 112.52860 35041 ft 464 kts 341°
2026-04-22 10:25 38.19728 112.51369 35049 ft 463 kts 341°
2026-04-22 10:26 38.26070 112.49874 35061 ft 463 kts 341°
2026-04-22 10:26 38.32423 112.48375 35050 ft 465 kts 341°
2026-04-22 10:27 38.38781 112.46873 35028 ft 464 kts 341°
2026-04-22 10:27 38.45134 112.45367 35058 ft 465 kts 341°
2026-04-22 10:28 38.50419 112.44099 35071 ft 466 kts 341°
2026-04-22 10:28 38.56781 112.42573 35060 ft 465 kts 340°
2026-04-22 10:29 38.63145 112.41043 35051 ft 465 kts 340°
2026-04-22 10:29 38.69512 112.39510 35060 ft 465 kts 340°
2026-04-22 10:30 38.75860 112.37980 35045 ft 462 kts 339°
2026-04-22 10:30 38.82170 112.36454 35078 ft 462 kts 340°
2026-04-22 10:31 38.88484 112.34926 35064 ft 462 kts 340°
2026-04-22 10:31 38.94794 112.33396 35057 ft 461 kts 340°
2026-04-22 10:32 39.01101 112.31862 35066 ft 462 kts 340°
2026-04-22 10:32 39.07416 112.30325 35053 ft 462 kts 340°
2026-04-22 10:33 39.13729 112.28785 35063 ft 462 kts 340°
2026-04-22 10:33 39.20030 112.27246 35058 ft 459 kts 340°
2026-04-22 10:34 39.26297 112.25712 35051 ft 459 kts 340°
2026-04-22 10:34 39.32572 112.24173 35060 ft 459 kts 340°
2026-04-22 10:35 39.38849 112.22631 35059 ft 458 kts 341°
2026-04-22 10:35 39.45082 112.21098 35047 ft 454 kts 341°
2026-04-22 10:36 39.51301 112.19584 35050 ft 455 kts 341°
2026-04-22 10:36 39.57522 112.18084 35058 ft 455 kts 341°
2026-04-22 10:37 39.66816 112.15835 35069 ft 450 kts 342°
2026-04-22 10:38 39.72969 112.14344 35059 ft 450 kts 342°
2026-04-22 10:38 39.79134 112.12847 35061 ft 451 kts 342°
2026-04-22 10:39 39.85295 112.11348 35070 ft 448 kts 343°
2026-04-22 10:39 39.91410 112.09856 35056 ft 447 kts 343°
2026-04-22 10:40 39.97527 112.08363 35050 ft 447 kts 343°
2026-04-22 10:40 40.03648 112.06861 35049 ft 447 kts 343°
2026-04-22 10:41 40.09769 112.05357 35053 ft 448 kts 343°
2026-04-22 10:41 40.15854 112.03859 35045 ft 448 kts 343°
2026-04-22 10:42 40.21977 112.02352 35039 ft 448 kts 343°
2026-04-22 10:42 40.28103 112.00845 35049 ft 448 kts 344°
2026-04-22 10:43 40.34228 111.99336 35036 ft 448 kts 344°
2026-04-22 10:43 40.40362 111.97858 35037 ft 449 kts 345°
2026-04-22 10:44 40.46521 111.96495 35036 ft 448 kts 345°
2026-04-22 10:44 40.52661 111.95120 35035 ft 446 kts 346°
2026-04-22 10:45 40.58786 111.93745 35040 ft 447 kts 346°
2026-04-22 10:45 40.64872 111.92172 35040 ft 445 kts 343°
2026-04-22 10:46 40.70929 111.90459 35041 ft 445 kts 344°
2026-04-22 10:46 40.76824 111.88179 35048 ft 441 kts 339°
2026-04-22 10:47 40.82704 111.85832 35013 ft 441 kts 340°
2026-04-22 10:47 40.88590 111.83508 35011 ft 442 kts 340°
2026-04-22 10:48 40.94460 111.81190 35031 ft 437 kts 341°
2026-04-22 10:48 41.00266 111.78895 35010 ft 435 kts 341°
2026-04-22 10:49 41.06076 111.76592 35020 ft 436 kts 341°
2026-04-22 10:49 41.11889 111.74285 35019 ft 436 kts 341°
2026-04-22 10:50 41.17661 111.71990 35020 ft 436 kts 341°
2026-04-22 10:50 41.23470 111.69675 35024 ft 436 kts 341°
2026-04-22 10:51 41.29280 111.67356 35012 ft 436 kts 341°
2026-04-22 10:51 41.35086 111.65033 35019 ft 436 kts 341°
2026-04-22 10:52 41.40878 111.62713 34999 ft 434 kts 341°
2026-04-22 10:52 41.46660 111.60392 34996 ft 434 kts 341°
2026-04-22 10:53 41.52444 111.58066 34982 ft 434 kts 341°
2026-04-22 10:53 41.58227 111.55736 34993 ft 433 kts 341°
2026-04-22 10:54 41.63969 111.53418 34973 ft 431 kts 341°
2026-04-22 10:54 41.69709 111.51096 34956 ft 431 kts 341°
2026-04-22 10:55 41.75446 111.48772 34958 ft 431 kts 341°
2026-04-22 10:55 41.81182 111.46443 34960 ft 430 kts 341°
2026-04-22 10:56 41.86897 111.44119 34952 ft 429 kts 341°
2026-04-22 10:56 41.92610 111.41791 34950 ft 429 kts 341°
2026-04-22 10:57 41.98324 111.39459 34942 ft 429 kts 341°
2026-04-22 10:57 42.04029 111.37126 34934 ft 428 kts 340°
2026-04-22 10:58 42.09723 111.34793 34929 ft 428 kts 340°
2026-04-22 10:58 42.15421 111.32455 34928 ft 428 kts 340°
2026-04-22 10:59 42.21115 111.30114 34932 ft 428 kts 340°
2026-04-22 10:59 42.26799 111.27777 34921 ft 427 kts 340°
2026-04-22 11:00 42.32480 111.25438 34910 ft 427 kts 340°
2026-04-22 11:00 42.38158 111.23095 34906 ft 427 kts 340°
2026-04-22 11:01 42.43839 111.20747 34915 ft 427 kts 340°
2026-04-22 11:01 42.49518 111.18396 34896 ft 427 kts 340°
2026-04-22 11:02 42.55200 111.16038 34889 ft 427 kts 340°
2026-04-22 11:02 42.60879 111.13677 34881 ft 427 kts 340°
2026-04-22 11:03 42.66556 111.11313 34885 ft 426 kts 340°
2026-04-22 11:03 42.72224 111.08947 34878 ft 426 kts 340°
2026-04-22 11:04 42.77852 111.06594 34877 ft 426 kts 340°
2026-04-22 11:04 42.83515 111.04222 34888 ft 426 kts 339°
2026-04-22 11:05 42.89171 111.01848 34868 ft 424 kts 339°
2026-04-22 11:05 42.94812 110.99476 34870 ft 424 kts 339°
2026-04-22 11:06 43.00454 110.97099 34874 ft 424 kts 339°
2026-04-22 11:06 43.06101 110.94715 34890 ft 424 kts 339°
2026-04-22 11:07 43.11731 110.92334 34870 ft 423 kts 339°
2026-04-22 11:07 43.17360 110.89950 34872 ft 424 kts 339°
2026-04-22 11:08 43.22985 110.87540 34870 ft 423 kts 339°
2026-04-22 11:08 43.28598 110.85108 34874 ft 423 kts 339°
2026-04-22 11:09 43.34211 110.82674 34870 ft 423 kts 339°
2026-04-22 11:09 43.39825 110.80235 34869 ft 423 kts 339°
2026-04-22 11:10 43.45437 110.77792 34868 ft 423 kts 339°
2026-04-22 11:10 43.51045 110.75346 34862 ft 422 kts 339°
2026-04-22 11:11 43.56609 110.72915 34867 ft 423 kts 339°
2026-04-22 11:11 43.62214 110.70461 34867 ft 423 kts 339°
2026-04-22 11:12 43.67818 110.68003 34878 ft 422 kts 339°
2026-04-22 11:12 43.73409 110.65545 34864 ft 421 kts 339°
2026-04-22 11:13 43.78999 110.63083 34860 ft 422 kts 339°
2026-04-22 11:13 43.84588 110.60618 34852 ft 421 kts 339°
2026-04-22 11:14 43.89265 110.58549 34868 ft 421 kts 339°
2026-04-22 11:14 43.95728 110.55686 34854 ft 419 kts 339°
2026-04-22 11:15 44.00349 110.53636 34855 ft 419 kts 339°
2026-04-22 11:15 44.05908 110.51164 34849 ft 419 kts 339°
2026-04-22 11:16 44.11465 110.48688 34865 ft 419 kts 339°
2026-04-22 11:16 44.17013 110.46212 34837 ft 419 kts 340°
2026-04-22 11:17 44.22569 110.43727 34846 ft 420 kts 340°
2026-04-22 11:17 44.28133 110.41234 34843 ft 420 kts 340°
2026-04-22 11:18 44.33695 110.38736 34853 ft 419 kts 340°
2026-04-22 11:18 44.39243 110.36239 34846 ft 419 kts 339°
2026-04-22 11:19 44.44789 110.33739 34844 ft 419 kts 339°
2026-04-22 11:19 44.50333 110.31235 34845 ft 419 kts 340°
2026-04-22 11:20 44.55852 110.28737 34863 ft 414 kts 340°
2026-04-22 11:20 44.61328 110.26253 34847 ft 413 kts 340°
2026-04-22 11:21 44.66802 110.23765 34839 ft 414 kts 340°
2026-04-22 11:21 44.72275 110.21273 34849 ft 414 kts 340°
2026-04-22 11:22 44.77746 110.18778 34855 ft 412 kts 339°
2026-04-22 11:22 44.83185 110.16293 34848 ft 411 kts 339°
2026-04-22 11:23 44.88614 110.13800 34845 ft 409 kts 338°
2026-04-22 11:23 44.91115 110.11984 34839 ft 404 kts 323°
2026-04-22 11:23 44.93369 110.09610 34832 ft 406 kts 323°
2026-04-22 11:24 44.97901 110.04864 34851 ft 406 kts 323°
2026-04-22 11:24 45.02393 110.00060 34851 ft 404 kts 322°
2026-04-22 11:25 45.06864 109.95249 34852 ft 404 kts 322°
2026-04-22 11:25 45.11335 109.90426 34848 ft 404 kts 322°
2026-04-22 11:26 45.15810 109.85589 34850 ft 405 kts 322°
2026-04-22 11:26 45.20283 109.80743 34851 ft 405 kts 322°
2026-04-22 11:27 45.24724 109.75923 34879 ft 404 kts 322°
2026-04-22 11:27 45.29175 109.71082 34857 ft 402 kts 322°
2026-04-22 11:28 45.33616 109.66242 34853 ft 402 kts 322°
2026-04-22 11:28 45.38054 109.61396 34858 ft 402 kts 322°
2026-04-22 11:29 45.42489 109.56543 34863 ft 402 kts 322°
2026-04-22 11:29 45.46923 109.51682 34858 ft 402 kts 322°
2026-04-22 11:30 45.51352 109.46816 34866 ft 402 kts 322°
2026-04-22 11:30 45.55779 109.41942 34860 ft 402 kts 322°
2026-04-22 11:31 45.60201 109.37063 34862 ft 402 kts 322°
2026-04-22 11:31 45.64624 109.32174 34861 ft 402 kts 322°
2026-04-22 11:32 45.69047 109.27280 34868 ft 402 kts 322°
2026-04-22 11:32 45.73464 109.22373 34864 ft 402 kts 322°
2026-04-22 11:33 45.77875 109.17465 34859 ft 400 kts 322°
2026-04-22 11:33 45.82265 109.12572 34865 ft 400 kts 322°
2026-04-22 11:34 45.86654 109.07671 34872 ft 400 kts 322°
2026-04-22 11:34 45.91044 109.02757 34873 ft 401 kts 322°
2026-04-22 11:34 45.93245 109.00290 35171 ft 401 kts 321°
2026-04-22 11:35 45.95412 108.97857 35484 ft 401 kts 321°
2026-04-22 11:35 45.97609 108.95390 35787 ft 401 kts 321°
2026-04-22 11:35 45.99811 108.92915 35886 ft 402 kts 321°
2026-04-22 11:36 46.04200 108.87973 35876 ft 399 kts 321°
2026-04-22 11:36 46.08572 108.83040 35578 ft 399 kts 321°
2026-04-22 11:36 46.10753 108.80574 35353 ft 398 kts 321°
2026-04-22 11:37 46.12932 108.78109 35129 ft 398 kts 321°
2026-04-22 11:37 46.15111 108.75643 34915 ft 398 kts 321°
2026-04-22 11:37 46.17286 108.73176 34699 ft 398 kts 321°
2026-04-22 11:37 46.19463 108.70705 34489 ft 398 kts 321°
2026-04-22 11:38 46.21636 108.68237 34280 ft 398 kts 321°
2026-04-22 11:38 46.23812 108.65762 34065 ft 398 kts 321°
2026-04-22 11:38 46.28121 108.60856 33585 ft 386 kts 321°
2026-04-22 11:39 46.30208 108.58476 33192 ft 378 kts 321°
2026-04-22 11:39 46.32256 108.56139 32807 ft 376 kts 321°
2026-04-22 11:39 46.34342 108.53756 32422 ft 388 kts 321°
2026-04-22 11:39 46.36475 108.51317 32020 ft 393 kts 321°
2026-04-22 11:40 46.38631 108.48850 31629 ft 397 kts 321°
2026-04-22 11:40 46.40804 108.46362 31239 ft 398 kts 321°
2026-04-22 11:40 46.42976 108.43876 30847 ft 397 kts 321°
2026-04-22 11:40 46.45122 108.41417 30485 ft 389 kts 321°
2026-04-22 11:41 46.47224 108.39007 30086 ft 381 kts 321°
2026-04-22 11:41 46.49285 108.36642 29677 ft 375 kts 321°
2026-04-22 11:41 46.51313 108.34311 29224 ft 369 kts 321°
2026-04-22 11:41 46.53307 108.32018 28805 ft 363 kts 321°
2026-04-22 11:42 46.55272 108.29755 28372 ft 358 kts 320°
2026-04-22 11:42 46.57184 108.27552 27946 ft 353 kts 320°
2026-04-22 11:42 46.59095 108.25347 27520 ft 349 kts 320°
2026-04-22 11:42 46.60984 108.23167 27097 ft 345 kts 320°
2026-04-22 11:43 46.62850 108.21010 26682 ft 341 kts 320°
2026-04-22 11:43 46.64697 108.18874 26276 ft 338 kts 320°
2026-04-22 11:43 46.66527 108.16756 25871 ft 335 kts 320°
2026-04-22 11:43 46.68340 108.14655 25472 ft 332 kts 320°
2026-04-22 11:44 46.70140 108.12567 25074 ft 330 kts 320°
2026-04-22 11:44 46.71929 108.10491 24686 ft 328 kts 320°
2026-04-22 11:44 46.73706 108.08426 24300 ft 326 kts 320°
2026-04-22 11:44 46.75474 108.06371 23919 ft 324 kts 320°
2026-04-22 11:45 46.77235 108.04322 23539 ft 323 kts 320°
2026-04-22 11:45 46.78989 108.02279 23152 ft 322 kts 319°
2026-04-22 11:45 46.80738 108.00240 22706 ft 321 kts 319°
2026-04-22 11:45 46.82479 107.98209 22266 ft 320 kts 319°
2026-04-22 11:46 46.84218 107.96179 21843 ft 319 kts 319°
2026-04-22 11:46 46.85950 107.94154 21409 ft 319 kts 319°
2026-04-22 11:46 46.87680 107.92130 20987 ft 318 kts 319°
2026-04-22 11:46 46.89407 107.90108 20571 ft 318 kts 319°
2026-04-22 11:47 46.91134 107.88085 20159 ft 318 kts 319°
2026-04-22 11:47 46.92855 107.86068 19792 ft 316 kts 319°
2026-04-22 11:47 46.94566 107.84058 19428 ft 315 kts 319°
2026-04-22 11:47 46.96270 107.82057 19066 ft 313 kts 319°
2026-04-22 11:48 46.97969 107.80060 18712 ft 313 kts 319°
2026-04-22 11:48 46.99661 107.78069 18362 ft 312 kts 319°
2026-04-22 11:48 47.01349 107.76081 18003 ft 311 kts 319°
2026-04-22 11:48 47.03032 107.74098 17607 ft 310 kts 319°
2026-04-22 11:49 47.04708 107.72123 17206 ft 309 kts 319°
2026-04-22 11:49 47.06376 107.70155 16838 ft 307 kts 319°
2026-04-22 11:49 47.08042 107.68207 16451 ft 306 kts 322°
2026-04-22 11:49 47.09910 107.66712 16074 ft 306 kts 332°
2026-04-22 11:50 47.11825 107.65363 15697 ft 304 kts 332°
2026-04-22 11:50 47.13731 107.64015 15323 ft 303 kts 332°
2026-04-22 11:50 47.15603 107.62690 14954 ft 302 kts 332°
2026-04-22 11:50 47.17488 107.61355 14593 ft 300 kts 332°
2026-04-22 11:51 47.19366 107.60024 14229 ft 299 kts 332°
2026-04-22 11:51 47.21233 107.58700 13879 ft 297 kts 332°
2026-04-22 11:51 47.23089 107.57383 13517 ft 295 kts 332°
2026-04-22 11:51 47.24935 107.56073 13118 ft 294 kts 332°
2026-04-22 11:52 47.26771 107.54768 12738 ft 292 kts 332°
2026-04-22 11:52 47.28597 107.53469 12350 ft 291 kts 332°
2026-04-22 11:52 47.30419 107.52172 11973 ft 290 kts 332°
2026-04-22 11:52 47.32231 107.50881 11596 ft 289 kts 332°
2026-04-22 11:53 47.34031 107.49599 11293 ft 285 kts 332°
2026-04-22 11:53 47.35804 107.48334 11202 ft 285 kts 332°
2026-04-22 11:53 47.37645 107.47019 11106 ft 302 kts 332°
2026-04-22 11:53 47.39566 107.45646 10992 ft 310 kts 332°
2026-04-22 11:54 47.41484 107.44276 10875 ft 301 kts 332°
2026-04-22 11:54 47.43330 107.42953 10807 ft 288 kts 332°
2026-04-22 11:54 47.45091 107.41693 10813 ft 274 kts 332°
2026-04-22 11:54 47.46762 107.40495 10810 ft 260 kts 332°
2026-04-22 11:55 47.48346 107.39358 10801 ft 247 kts 332°
2026-04-22 11:55 47.49858 107.38274 10716 ft 236 kts 332°
2026-04-22 11:55 47.51304 107.37235 10665 ft 225 kts 331°
2026-04-22 11:55 47.52679 107.36248 10562 ft 215 kts 331°
2026-04-22 11:56 47.53999 107.35294 10429 ft 206 kts 329°
2026-04-22 11:56 47.55154 107.34157 10306 ft 192 kts 318°
2026-04-22 11:56 47.56052 107.32758 10015 ft 187 kts 308°
2026-04-22 11:56 47.56845 107.31187 9505 ft 194 kts 305°
2026-04-22 11:57 47.57594 107.29506 9052 ft 194 kts 302°
2026-04-22 11:57 47.58258 107.27818 8724 ft 185 kts 299°
2026-04-22 11:57 47.58828 107.26108 8193 ft 188 kts 294°
2026-04-22 11:57 47.59257 107.24269 7589 ft 195 kts 288°
2026-04-22 11:58 47.59586 107.22319 7160 ft 193 kts 285°
2026-04-22 11:58 47.59863 107.20414 6863 ft 186 kts 283°
2026-04-22 11:58 47.60028 107.18552 6566 ft 178 kts 277°
2026-04-22 11:58 47.60066 107.16730 6208 ft 172 kts 274°
2026-04-22 11:59 47.60038 107.14959 6238 ft 173 kts 269°
2026-04-22 11:59 47.60022 107.13178 6351 ft 172 kts 276°
2026-04-22 11:59 47.60097 107.11422 6475 ft 168 kts 278°
2026-04-22 11:59 47.60217 107.09730 6615 ft 163 kts 281°
2026-04-22 12:00 47.60391 107.08074 6593 ft 163 kts 283°
2026-04-22 12:00 47.60623 107.06482 6336 ft 153 kts 284°
2026-04-22 12:00 47.60759 107.04975 6210 ft 144 kts 277°
2026-04-22 12:00 47.60829 107.03500 6274 ft 144 kts 283°
2026-04-22 12:01 47.61011 107.02048 6365 ft 144 kts 287°
2026-04-22 12:01 47.61241 107.00601 6330 ft 144 kts 285°
2026-04-22 12:01 47.61445 106.99147 6267 ft 144 kts 287°
2026-04-22 12:01 47.61747 106.97731 6183 ft 145 kts 291°
2026-04-22 12:02 47.62050 106.96300 5934 ft 146 kts 291°
2026-04-22 12:02 47.62267 106.95365 5788 ft 145 kts 289°
2026-04-22 12:02 47.62572 106.93950 5611 ft 143 kts 291°
2026-04-22 12:02 47.62828 106.92500 5475 ft 143 kts 286°
2026-04-22 12:03 47.63059 106.91095 5357 ft 141 kts 288°
2026-04-22 12:03 47.63321 106.89680 5242 ft 144 kts 286°
2026-04-22 12:03 47.63577 106.88236 5053 ft 142 kts 285°
2026-04-22 12:03 47.63831 106.86823 4830 ft 144 kts 286°
2026-04-22 12:04 47.64100 106.85360 4675 ft 149 kts 285°
2026-04-22 12:04 47.64352 106.83892 4507 ft 141 kts 285°
2026-04-22 12:04 47.64572 106.82672 4495 ft 95 kts 284°
2026-04-22 12:04 47.64688 106.82020 4495 ft 39 kts 285°
2026-04-22 12:05 47.64751 106.81657 4495 ft 38 kts 284°
2026-04-22 12:05 47.64812 106.81317 4498 ft 28 kts 284°
2026-04-22 12:05 47.64866 106.81043 4496 ft 27 kts 293°
2026-04-22 12:05 47.64945 106.80871 4500 ft 8 kts 307°
2026-04-22 12:06 47.64988 106.80802 4497 ft 10 kts 327°
2026-04-22 12:06 47.65051 106.80819 4498 ft 10 kts 45°
2026-04-22 12:06 47.65059 106.80917 4496 ft 11 kts 104°
2026-04-22 12:06 47.65039 106.81031 4500 ft 12 kts 104°
2026-04-22 12:07 47.65017 106.81159 4497 ft 14 kts 104°
2026-04-22 12:07 47.64991 106.81301 4496 ft 15 kts 104°
2026-04-22 12:07 47.64970 106.81428 4499 ft 9 kts 101°
2026-04-22 12:07 47.64974 106.81515 4503 ft 8 kts 69°
2026-04-22 12:08 47.64998 106.81580 4503 ft 7 kts 60°
2026-04-22 12:08 47.65017 106.81667 4507 ft 12 kts 94°
2026-04-22 12:08 47.64990 106.81820 4504 ft 18 kts 104°
2026-04-22 12:08 47.64976 106.81931 4504 ft 7 kts 68°
2026-04-22 12:09 47.65032 106.81972 4505 ft 10 kts 13°
2026-04-22 12:09 47.65072 106.81987 4504 ft 2 kts 14°
2026-04-22 12:09 47.65085 106.81992 4504 ft 0 kts 14°
2026-04-22 12:09 47.65093 106.81995 4504 ft 2 kts 14°
2026-04-22 12:10 47.65096 106.81996 4504 ft 0 kts 14°
2026-04-22 12:10 47.65097 106.81996 4504 ft 0 kts 14°